STARLINK-2015 (47638 NORAD) Tracking and Keplerian Element Data

This shows tracking and keplerian element data for the satellite.

Feedback or suggestion? Click here.




ElementValue
Catalog47638
NameSTARLINK-2015
Epoch Orbit182
Epoch Day99.91667824
Epoch Year2021
RAAN198.8639
Inclination53.047
Eccentricity0.0001843
Argument of Perigee27.8331
Mean Anonmoly229.7905
Mean Motion15.73218097
Decay Rate-0.00041127
L11 47638U 21012U 21099.91667824 -.00041127 00000-0 -28974-3 0 9998
L22 47638 53.0470 198.8639 0001843 27.8331 229.7905 15.73218097 1821

Live tracking and technical data element details for STARLINK-2015 (NORAD 47638). STARLINK-2015 can be tracked NOW for your location showing map with azimuth and elevation plus other details from your city location.

Track the satellite on the map from your city or location and see movement details for azimuth, elevation, latitude, longitude, range, height, and movement on the map or in text.







IsCatalogInMostPopularTable: catalog: 47638, numindb: 18
Update: records affected: 1



GetName: 47638 STARLINK-2015

Hit Count: updated at: Sat, 10 Apr 2021 18:46:07 GMT